Location: Jefferson
(30.9666°N, 81.7901°W)
Time: 23:25:36
(UTC+00:00)

Hubble Space Telescope - Pass Details

Date: 25 September 2024
Orbit: 504 x 508 km, 28.5° (Epoch: 06 October)

Event Time Altitude Azimuth Distance (km) Brightness Sun altitude
Exits shadow 09:59:53 12° 193° (SSW) 1,582 2.9 -17.4°
Maximum altitude 10:02:00 17° 157° (SSE) 1,319 2.9 -17.0°
Drops below altitude 10° 10:04:35 10° 116° (ESE) 1,697 4.1 -16.4°
Sets 10:07:24 0° 95° (E) 2,582 5.9 -15.8°
